Location: Unspecified
(48.2082°N, 0.0000°E)
Time: 04:49:21
(UTC+00:00)

Altair - Pass Details

Date: 25 June 2019
Orbit: 1501 x 1683 km, 47.2° (Epoch: 19 July)

Event Time Altitude Azimuth Distance (km) Brightness Sun altitude
Rises 17:11:54 0° 193° (SSW) 4,651 10.1 25.5°
Reaches altitude 10° 17:15:36 10° 181° (S) 3,693 9.5 24.9°
Maximum altitude 17:22:39 25° 131° (SE) 2,764 8.6 23.7°
Drops below altitude 10° 17:29:52 10° 82° (E) 3,810 9.1 22.5°
Sets 17:33:44 0° 70° (ENE) 4,829 9.6 21.9°
